Satellite: NOAA-14
Catalog number: 23455
Epoch time: 10321.78619211
Element set: 0268
Inclination: 098.8690 deg
RA of node: 041.3796 deg
Eccentricity: 0.0009604
Arg of perigee: 155.1037 deg
Mean anomaly: 205.0601 deg
Mean motion: 14.13799996 rev/day
Decay rate: -1.7e-07 rev/day^2
Epoch rev: 81920
Checksum: 305
Satellite: NOAA-15
Catalog number: 25338
Epoch time: 10321.52011977
Element set: 0597
Inclination: 098.6355 deg
RA of node: 305.8214 deg
Eccentricity: 0.0010565
Arg of perigee: 354.0325 deg
Mean anomaly: 006.0737 deg
Mean motion: 14.24865690 rev/day
Decay rate: -1.02e-06 rev/day^2
Epoch rev: 65058
Checksum: 291
Satellite: RESURS
Catalog number: 25394
Epoch time: 10322.62699039
Element set: 654
Inclination: 098.3007 deg
RA of node: 332.2684 deg
Eccentricity: 0.0002045
Arg of perigee: 104.0242 deg
Mean anomaly: 256.1162 deg
Mean motion: 14.24215874 rev/day
Decay rate: 1.4e-07 rev/day^2
Epoch rev: 64233
Checksum: 263
Satellite: FENGYUN1
Catalog number: 25730
Epoch time: 10321.77004085
Element set: 186
Inclination: 098.8009 deg
RA of node: 282.8356 deg
Eccentricity: 0.0019944
Arg of perigee: 190.5913 deg
Mean anomaly: 169.4838 deg
Mean motion: 14.08411828 rev/day
Decay rate: 1.241e-05 rev/day^2
Epoch rev: 59330
Checksum: 306
Satellite: OKEAN-0
Catalog number: 25860
Epoch time: 10321.86880324
Element set: 152
Inclination: 097.8548 deg
RA of node: 289.5255 deg
Eccentricity: 0.0000989
Arg of perigee: 043.0483 deg
Mean anomaly: 317.0802 deg
Mean motion: 14.73683626 rev/day
Decay rate: 2.06e-06 rev/day^2
Epoch rev: 60953
Checksum: 308
Satellite: NOAA-16
Catalog number: 26536
Epoch time: 10321.57720590
Element set: 0073
Inclination: 099.1633 deg
RA of node: 342.6065 deg
Eccentricity: 0.0009809
Arg of perigee: 267.1249 deg
Mean anomaly: 092.8798 deg
Mean motion: 14.12583666 rev/day
Decay rate: -2.70e-06 rev/day^2
Epoch rev: 52348
Checksum: 322
Satellite: NOAA-17
Catalog number: 27453
Epoch time: 10321.71538265
Element set: 0065
Inclination: 098.4118 deg
RA of node: 005.8191 deg
Eccentricity: 0.0012504
Arg of perigee: 051.5692 deg
Mean anomaly: 308.6594 deg
Mean motion: 14.24210158 rev/day
Decay rate: 1.53e-06 rev/day^2
Epoch rev: 43655
Checksum: 284
Satellite: NOAA-18
Catalog number: 28654
Epoch time: 10321.78080918
Element set: 0555
Inclination: 098.9686 deg
RA of node: 267.7280 deg
Eccentricity: 0.0014168
Arg of perigee: 343.9187 deg
Mean anomaly: 016.1556 deg
Mean motion: 14.11408388 rev/day
Decay rate: 1.58e-06 rev/day^2
Epoch rev: 28310
Checksum: 330
Satellite: NOAA-19
Catalog number: 33591
Epoch time: 10321.73146201
Element set: 0750
Inclination: 098.8044 deg
RA of node: 260.6912 deg
Eccentricity: 0.0013617
Arg of perigee: 212.0490 deg
Mean anomaly: 147.9848 deg
Mean motion: 14.11104471 rev/day
Decay rate: 2.11e-06 rev/day^2
Epoch rev: 09156
Checksum: 269
/EX
SB KEPS @ AMSAT $ORB10322.M
Orbital Elements 10322.MISC
HR AMSAT ORBITAL ELEMENTS FOR MANNED AND MISCELLANEOUS SATELLITES
FROM WA5QGD FORT WORTH,TX November 18, 2010
BID: ORB10322.M
TO ALL RADIO AMATEURS BT
Satellite: HUBBLE
Catalog number: 20580
Epoch time: 10322.23800227
Element set: 677
Inclination: 028.4711 deg
RA of node: 314.0931 deg
Eccentricity: 0.0003174
Arg of perigee: 044.1313 deg
Mean anomaly: 315.9453 deg
Mean motion: 15.01096561 rev/day
Decay rate: 8.11e-06 rev/day^2
Epoch rev: 92792
Checksum: 254
Satellite: ISS
Catalog number: 25544
Epoch time: 10322.29145833
Element set: 298
Inclination: 051.6439 deg
RA of node: 161.9899 deg
Eccentricity: 0.0007603
Arg of perigee: 212.9096 deg
Mean anomaly: 126.3632 deg
Mean motion: 15.72878646 rev/day
Decay rate: 1.8412e-04 rev/day^2
Epoch rev: 68770
Checksum: 326
Satellite: CO-58
Catalog number: 28895
Epoch time: 10321.36809098
Element set: 0730
Inclination: 097.9922 deg
RA of node: 200.5774 deg
Eccentricity: 0.0018322
Arg of perigee: 161.7705 deg
Mean anomaly: 198.4144 deg
Mean motion: 14.59964909 rev/day
Decay rate: 2.22e-06 rev/day^2
Epoch rev: 26933
Checksum: 337
Satellite: FALCON
Catalog number: 30776
Epoch time: 10321.91277533
Element set: 0966
Inclination: 035.4332 deg
RA of node: 190.8141 deg
Eccentricity: 0.0001019
Arg of perigee: 012.9237 deg
Mean anomaly: 347.1507 deg
Mean motion: 15.03957103 rev/day
Decay rate: 1.382e-05 rev/day^2
Epoch rev: 20321
Checksum: 258
Satellite: MAST
Catalog number: 31126
Epoch time: 10321.65502011
Element set: 0016
Inclination: 097.9211 deg
RA of node: 355.5899 deg
Eccentricity: 0.0095405
Arg of perigee: 108.5570 deg
Mean anomaly: 252.6013 deg
Mean motion: 14.53642888 rev/day
Decay rate: 1.13e-06 rev/day^2
Epoch rev: 19035
Checksum: 269
Satellite: CAPE1
Catalog number: 31130
Epoch time: 10322.61231242
Element set: 34
Inclination: 097.9224 deg
RA of node: 353.6098 deg
Eccentricity: 0.0104406
Arg of perigee: 115.1847 deg
Mean anomaly: 246.0233 deg
Mean motion: 14.52254493 rev/day
Decay rate: 5.51e-06 rev/day^2
Epoch rev: 19007
Checksum: 250
Satellite: COMPASS
Catalog number: 32787
Epoch time: 10321.30311006
Element set: 0833
Inclination: 097.8759 deg
RA of node: 023.8147 deg
Eccentricity: 0.0016054
Arg of perigee: 143.6072 deg
Mean anomaly: 216.6219 deg
Mean motion: 14.82046205 rev/day
Decay rate: 9.67e-06 rev/day^2
Epoch rev: 13817
Checksum: 281
Satellite: AAUSAT2
Catalog number: 32788
Epoch time: 10321.69596646
Element set: 822
Inclination: 097.8775 deg
RA of node: 024.3666 deg
Eccentricity: 0.0015996
Arg of perigee: 143.2394 deg
Mean anomaly: 216.9907 deg
Mean motion: 14.82201405 rev/day
Decay rate: 1.061e-05 rev/day^2
Epoch rev: 13824
Checksum: 321
Satellite: DO-64
Catalog number: 32789
Epoch time: 10321.68573126
Element set: 0840
Inclination: 097.8853 deg
RA of node: 025.0182 deg
Eccentricity: 0.0016161
Arg of perigee: 142.1017 deg
Mean anomaly: 218.1332 deg
Mean motion: 14.82438597 rev/day
Decay rate: 1.603e-05 rev/day^2
Epoch rev: 13824
Checksum: 293
Satellite: CO-66
Catalog number: 32791
Epoch time: 10322.15889224
Element set: 824
Inclination: 097.8788 deg
RA of node: 024.6503 deg
Eccentricity: 0.0016567
Arg of perigee: 139.7771 deg
Mean anomaly: 220.4675 deg
Mean motion: 14.81805108 rev/day
Decay rate: 1.001e-05 rev/day^2
Epoch rev: 13825
Checksum: 314
Satellite: RS-30
Catalog number: 32953
Epoch time: 10321.94431816
Element set: 223
Inclination: 082.4994 deg
RA of node: 294.0655 deg
Eccentricity: 0.0019784
Arg of perigee: 123.9214 deg
Mean anomaly: 236.3751 deg
Mean motion: 12.43009179 rev/day
Decay rate: 1.0e-07 rev/day^2
Epoch rev: 11284
Checksum: 284
Satellite: TACSAT-3
Catalog number: 35001
Epoch time: 10321.54306924
Element set: 0444
Inclination: 040.4553 deg
RA of node: 011.8194 deg
Eccentricity: 0.0021264
Arg of perigee: 071.0230 deg
Mean anomaly: 289.2888 deg
Mean motion: 15.43644042 rev/day
Decay rate: 9.732e-05 rev/day^2
Epoch rev: 08432
Checksum: 262
Satellite: PHARMSAT
Catalog number: 35002
Epoch time: 10321.51784220
Element set: 0411
Inclination: 040.4683 deg
RA of node: 009.5445 deg
Eccentricity: 0.0023523
Arg of perigee: 074.2577 deg
Mean anomaly: 286.0831 deg
Mean motion: 15.43969320 rev/day
Decay rate: 8.813e-05 rev/day^2
Epoch rev: 08434
Checksum: 268
Satellite: HAWKSAT1
Catalog number: 35003
Epoch time: 10321.48804981
Element set: 0445
Inclination: 040.4571 deg
RA of node: 358.8917 deg
Eccentricity: 0.0021924
Arg of perigee: 096.8620 deg
Mean anomaly: 263.4693 deg
Mean motion: 15.49157243 rev/day
Decay rate: 2.1529e-04 rev/day^2
Epoch rev: 08446
Checksum: 307
Satellite: CP6
Catalog number: 35004
Epoch time: 10321.49908971
Element set: 0446
Inclination: 040.4607 deg
RA of node: 356.2878 deg
Eccentricity: 0.0021029
Arg of perigee: 104.0231 deg
Mean anomaly: 256.2930 deg
Mean motion: 15.50837301 rev/day
Decay rate: 2.7799e-04 rev/day^2
Epoch rev: 08448
Checksum: 296
Satellite: AEROCUB3
Catalog number: 35005
Epoch time: 10322.41035837
Element set: 526
Inclination: 040.4649 deg
RA of node: 334.0078 deg
Eccentricity: 0.0023167
Arg of perigee: 143.7968 deg
Mean anomaly: 216.4434 deg
Mean motion: 15.72052859 rev/day
Decay rate: 2.02057e-03 rev/day^2
Epoch rev: 8481
Checksum: 288
Satellite: METEOR-M
Catalog number: 35865
Epoch time: 10322.74070770
Element set: 846
Inclination: 098.7388 deg
RA of node: 015.2733 deg
Eccentricity: 0.0002080
Arg of perigee: 301.4013 deg
Mean anomaly: 058.6925 deg
Mean motion: 14.21832913 rev/day
Decay rate: 1.76e-06 rev/day^2
Epoch rev: 6068
Checksum: 284
Satellite: RS-38
Catalog number: 35869
Epoch time: 10322.83590043
Element set: 858
Inclination: 098.7370 deg
RA of node: 015.4079 deg
Eccentricity: 0.0003966
Arg of perigee: 286.4939 deg
Mean anomaly: 073.5776 deg
Mean motion: 14.21993676 rev/day
Decay rate: 1.77e-06 rev/day^2
Epoch rev: 6070
Checksum: 349
/EX
More information about the Keps
mailing list